Hourly Data Report for October 26, 2015

All times are specified in Local Standard Time (LST). Add 1 hour to adjust for Daylight Saving Time where and when it is observed.

WINNIPEG A CS
MANITOBA

49°55'00.000" N
97°14'58.000" W
238.70 m
502S001
71849
XWG

Download Data

Hourly Data (October 2015)
Hourly Data Report for October 26, 2015
Temp Definition
°C
Dew Point Temp Definition
°C
Rel Hum Definition
%
Wind Dir Definition
10's deg

Wind Spd Definition
km/h
Visibility Definition
km
Stn Press Definition
kPa
Hmdx Definition


Wind Chill Definition


Weather Definition


TIME
00:00 1.6 -0.3 87 17 4   99.85     LegendNANA
01:00 2.3 0.0 85 15 2   99.87     LegendNANA
02:00 0.6 -0.7 91 16 11   99.84     LegendNANA
03:00 0.3 -0.6 94 19 6   99.84     LegendNANA
04:00 1.2 0.5 95 18 5   99.82     LegendNANA
05:00 -0.5 -1.1 96 17 9   99.83   -4 LegendNANA
06:00 -0.9 -1.4 96 19 7   99.85   -3 LegendNANA
07:00 -1.1 -1.4 98 17 5   99.86   -3 LegendNANA
08:00 0.6 0.0 96 20 3   99.88     LegendNANA
09:00 2.3 0.4 87 20 17   99.95     LegendNANA
10:00 4.4 1.3 80 22 11   99.97     LegendNANA
11:00 5.9 1.7 74 20 13   99.95     LegendNANA
12:00 8.6 1.6 62 23 9   99.91     LegendNANA
13:00 9.2 2.2 61 18 9   99.86     LegendNANA
14:00 9.8 2.5 60 20 9   99.81     LegendNANA
15:00 9.8 2.1 59 12 6   99.74     LegendNANA
16:00 9.5 2.0 59 12 3   99.69     LegendNANA
17:00 6.8 1.9 71 10 9   99.69     LegendNANA
18:00 5.0 1.5 78 7 10   99.69     LegendNANA
19:00 2.6 0.7 87 7 11   99.67     LegendNANA
20:00 2.4 1.4 93 7 11   99.65     LegendNANA
21:00 2.8 1.2 89 10 14   99.66     LegendNANA
22:00 3.0 0.3 82 12 14   99.63     LegendNANA
23:00 3.5 0.3 79 12 15   99.58     LegendNANA

Notes on Data Quality.

Legend

  • E = Estimated
  • M = Missing
  • NA = Not Available
  • ‡ = Partner data that is not subject to review by the National Climate Archives
Date modified: